EUTELSAT HOTBIRD 13F

Last updated on Thu Aug 13 2026 00:03:03 GMT+0000 (Coordinated Universal Time)

1 54048U 22134A 26224.57460814 .00000069 00000+0 00000+0 0 9997 2 54048 0.0595 282.3584 0002010 76.0762 182.4329 1.00269676 13948
UTC large
Height (km)
Speed (km/s)
/
Latitude / Longitude
Inclination (degrees)
Orbital Period (minutes)
Azimuth
Elevation
Range (km)
Doppler Factor

Next 0 passes for location: London (51.5072 / 0.1276)

No passes found over London.
EUTELSAT HOTBIRD 13F